�N����,����,�~����,�C��,���x,�C��,����,���ϕ���,�ő�u�ԕ���,�ő厞����,���˗�,�I�_���x,�n�����x,�ő啗���N��,DTYPE
"23/09/01","00:10",0.0,24.1,87.8,1009.5,298.2,0.6,1.0,308.6,0.00,22.0,26.0,"00:03:52",1
"23/09/01","00:20",0.0,24.2,88.2,1009.7,322.7,1.1,1.9,344.0,0.00,22.2,26.1,"00:17:04",1
"23/09/01","00:30",0.0,24.0,88.4,1009.3,321.0,0.7,1.4,323.1,0.00,22.0,25.8,"00:20:16",1
"23/09/01","00:40",0.0,23.9,88.7,1009.5,326.2,0.8,1.2,342.8,0.00,22.0,25.8,"00:37:20",1
"23/09/01","00:50",0.0,23.8,89.0,1009.5,292.4,0.7,1.7,330.5,0.00,21.9,25.9,"00:48:48",1
"23/09/01","01:00",0.0,23.8,89.3,1009.7,317.4,0.5,1.1,277.2,0.00,22.0,25.7,"00:57:44",1
"23/09/01","01:10",0.0,23.9,89.5,1009.5,330.3,1.1,1.9,330.4,0.00,22.1,25.9,"01:07:44",1
"23/09/01","01:20",0.0,23.9,89.6,1009.3,329.6,1.2,1.8,343.6,0.00,22.1,25.9,"01:13:04",1
"23/09/01","01:30",0.0,23.8,89.6,1009.3,316.6,1.0,1.7,329.6,0.00,22.0,25.7,"01:20:08",1
"23/09/01","01:40",0.0,23.8,89.8,1009.0,307.8,0.8,2.0,310.3,0.00,22.1,25.7,"01:35:28",1
"23/09/01","01:50",0.0,23.6,89.8,1009.5,292.5,0.7,1.2,310.6,0.00,21.9,25.7,"01:45:12",1
"23/09/01","02:00",0.0,23.4,89.9,1009.3,315.1,0.6,1.0,317.0,0.00,21.7,25.7,"01:52:08",1
"23/09/01","02:10",0.0,23.4,90.0,1009.3,326.9,0.7,1.3,326.8,0.00,21.7,25.7,"02:05:36",1
"23/09/01","02:20",0.0,23.2,90.2,1009.0,314.5,1.0,1.6,328.1,0.00,21.5,25.7,"02:14:16",1
"23/09/01","02:30",0.0,23.2,90.6,1008.8,301.3,0.7,1.9,328.1,0.00,21.6,25.4,"02:27:04",1
"23/09/01","02:40",0.0,23.2,90.7,1008.8,319.8,0.8,1.6,331.0,0.00,21.6,25.6,"02:33:12",1
"23/09/01","02:50",0.0,23.3,90.9,1009.0,318.3,1.2,2.0,315.9,0.00,21.8,25.4,"02:45:20",1
"23/09/01","03:00",0.0,23.4,91.0,1009.3,317.5,1.1,1.8,343.9,0.00,21.9,25.6,"02:55:44",1
"23/09/01","03:10",0.0,23.4,91.1,1009.0,296.0,0.5,1.1,268.4,0.00,21.9,25.4,"03:02:48",1
"23/09/01","03:20",0.0,23.3,91.3,1009.0,292.0,0.6,1.6,289.6,0.00,21.8,25.7,"03:18:16",1
"23/09/01","03:30",0.0,23.5,91.3,1009.3,289.0,0.8,1.6,308.9,0.00,22.0,25.3,"03:24:16",1
"23/09/01","03:40",0.0,23.6,91.2,1009.5,279.7,1.0,1.6,264.8,0.00,22.1,25.4,"03:30:24",1
"23/09/01","03:50",0.0,23.5,91.2,1009.0,278.0,0.8,1.3,263.2,0.00,22.0,25.4,"03:43:20",1
"23/09/01","04:00",0.0,23.4,91.2,1009.0,314.1,0.8,1.7,308.8,0.00,21.9,25.3,"03:57:28",1
"23/09/01","04:10",0.0,23.4,91.2,1009.3,327.8,1.2,1.9,315.2,0.00,21.9,25.2,"04:03:20",1
"23/09/01","04:20",0.0,23.3,91.2,1009.0,326.5,0.8,1.9,335.4,0.00,21.8,25.4,"04:18:56",1
"23/09/01","04:30",0.0,23.3,91.3,1008.8,325.8,1.1,2.0,337.1,0.00,21.8,25.3,"04:21:52",1
"23/09/01","04:40",0.0,23.1,91.3,1009.0,297.0,0.8,1.2,310.4,0.00,21.6,25.2,"04:30:48",1
"23/09/01","04:50",0.0,23.1,91.4,1009.0,294.3,0.7,1.3,308.8,0.00,21.7,25.1,"04:40:48",1
"23/09/01","05:00",0.0,23.0,91.5,1009.5,293.1,0.5,1.0,328.6,0.00,21.6,25.2,"04:58:00",1
"23/09/01","05:10",0.0,23.1,91.5,1009.0,291.7,0.7,1.2,312.3,0.00,21.7,25.2,"05:03:04",1
"23/09/01","05:20",0.0,23.0,91.5,1009.3,295.5,0.6,1.0,313.3,0.00,21.6,25.0,"05:14:48",1
"23/09/01","05:30",0.0,23.1,91.7,1009.3,294.5,0.8,1.2,268.9,0.00,21.7,24.8,"05:24:08",1
"23/09/01","05:40",0.0,23.3,91.8,1009.3,299.4,1.1,1.7,325.8,0.00,21.9,25.2,"05:35:36",1
"23/09/01","05:50",0.0,23.5,91.8,1009.3,315.9,1.1,2.5,328.9,0.00,22.1,25.2,"05:42:40",1
"23/09/01","06:00",0.0,23.8,91.7,1009.0,317.3,0.7,1.3,325.1,0.01,22.4,25.1,"05:56:40",1
"23/09/01","06:10",0.0,24.3,91.6,1008.8,320.1,0.8,1.3,324.4,0.03,22.9,25.1,"06:08:56",1
"23/09/01","06:20",0.0,25.2,91.4,1009.3,294.8,0.3,1.1,320.4,0.05,23.7,25.1,"06:10:08",1
"23/09/01","06:30",0.0,25.5,90.5,1009.3,321.1,0.5,1.2,331.9,0.05,23.9,25.0,"06:26:32",1
"23/09/01","06:40",0.0,26.5,89.7,1009.5,3.5,0.2,0.6,330.1,0.07,24.7,24.9,"06:30:08",1
"23/09/01","06:50",0.0,27.2,88.1,1009.3,5.6,0.3,0.6,355.3,0.09,25.1,25.0,"06:42:08",1
"23/09/01","07:00",0.0,27.9,86.1,1008.8,16.4,0.1,0.6,318.2,0.08,25.4,25.2,"06:58:16",1
"23/09/01","07:10",0.0,27.8,83.0,1008.6,338.9,0.6,1.1,328.4,0.07,24.7,25.1,"07:02:32",1
"23/09/01","07:20",0.0,27.7,81.1,1008.6,341.4,0.6,1.3,341.0,0.08,24.2,25.0,"07:10:02",1
"23/09/01","07:30",0.0,27.7,78.9,1007.8,352.2,0.7,1.2,349.4,0.10,23.7,25.1,"07:20:24",1
"23/09/01","07:40",0.0,27.9,77.7,1008.1,318.2,0.5,1.0,355.7,0.11,23.7,25.0,"07:32:00",1
"23/09/01","07:50",0.0,28.5,76.1,1008.6,331.7,0.5,1.2,353.6,0.20,23.9,25.3,"07:43:04",1
"23/09/01","08:00",0.0,29.2,73.3,1008.8,348.5,0.6,1.2,352.4,0.20,24.0,25.2,"07:50:56",1
"23/09/01","08:10",0.0,29.4,71.8,1009.0,335.0,0.7,1.7,1.7,0.20,23.8,25.3,"08:01:36",1
"23/09/01","08:20",0.0,30.1,71.4,1009.5,79.4,0.5,1.1,73.7,0.24,24.4,25.4,"08:17:12",1
"23/09/01","08:30",0.0,30.7,66.4,1010.0,146.3,1.2,3.3,212.9,0.35,23.8,25.2,"08:29:04",1
"23/09/01","08:40",0.0,31.0,65.9,1010.0,133.2,1.3,2.9,176.8,0.29,23.9,25.5,"08:32:32",1
"23/09/01","08:50",0.0,30.7,65.0,1010.4,151.8,1.5,3.3,192.1,0.27,23.4,25.5,"08:49:20",1
"23/09/01","09:00",0.0,30.5,65.6,1010.2,159.5,1.6,4.2,198.7,0.29,23.4,25.3,"08:52:24",1
"23/09/01","09:10",0.0,30.6,65.3,1010.0,177.2,1.8,4.4,191.2,0.29,23.4,25.4,"09:02:56",1
"23/09/01","09:20",0.0,31.1,64.0,1010.4,141.4,1.2,2.6,145.4,0.34,23.5,25.5,"09:14:48",1
"23/09/01","09:30",0.0,31.0,61.9,1010.4,164.5,1.3,2.7,164.3,0.32,22.9,25.5,"09:27:12",1
"23/09/01","09:40",0.0,30.8,62.7,1010.0,164.7,1.6,3.6,208.3,0.26,22.9,25.6,"09:35:20",1
"23/09/01","09:50",0.0,31.9,60.7,1010.0,169.2,1.7,3.7,216.2,0.48,23.4,25.7,"09:43:28",1
"23/09/01","10:00",0.0,32.3,59.0,1010.7,150.6,1.8,3.9,130.9,0.47,23.3,25.7,"09:50:02",1
"23/09/01","10:10",0.0,32.4,59.8,1010.2,160.4,1.7,4.7,209.5,0.39,23.6,25.9,"10:04:56",1
"23/09/01","10:20",0.0,32.1,58.6,1010.0,154.8,1.8,5.0,183.5,0.41,23.0,25.7,"10:18:00",1
"23/09/01","10:30",0.0,32.9,55.3,1010.4,144.3,1.5,3.9,210.8,0.52,22.8,25.9,"10:20:02",1
"23/09/01","10:40",0.0,33.1,54.5,1010.4,176.5,2.6,7.1,213.1,0.53,22.7,26.1,"10:33:12",1
"23/09/01","10:50",0.0,33.1,53.8,1010.2,178.0,2.2,5.5,204.7,0.47,22.5,26.0,"10:48:40",1
"23/09/01","11:00",0.0,33.3,52.4,1010.2,176.2,2.3,6.0,218.0,0.52,22.3,26.2,"10:59:28",1
"23/09/01","11:10",0.0,33.1,52.3,1010.0,208.7,3.1,5.6,220.9,0.45,22.1,26.0,"11:02:00",1
"23/09/01","11:20",0.0,33.8,53.6,1010.0,192.4,1.6,4.1,219.1,0.54,23.1,26.1,"11:15:12",1
"23/09/01","11:30",0.0,32.4,54.5,1010.0,175.8,2.2,4.4,219.1,0.25,22.1,26.3,"11:23:12",1
"23/09/01","11:40",0.0,32.4,56.3,1009.3,176.7,1.6,4.1,146.9,0.28,22.6,26.5,"11:34:48",1
"23/09/01","11:50",0.0,32.2,57.5,1009.0,174.5,2.0,6.6,213.4,0.20,22.8,26.4,"11:40:48",1
"23/09/01","12:00",0.0,33.4,52.3,1008.8,213.6,2.0,4.2,221.6,0.49,22.3,26.3,"11:58:16",1
"23/09/01","12:10",0.0,33.3,53.3,1009.3,177.0,1.6,4.2,153.6,0.43,22.6,26.5,"12:08:00",1
"23/09/01","12:20",0.0,33.2,50.6,1009.3,211.5,1.8,6.6,207.0,0.33,21.6,26.6,"12:14:56",1
"23/09/01","12:30",0.0,34.3,50.9,1009.0,207.6,1.6,3.9,228.7,0.56,22.7,26.7,"12:23:04",1
"23/09/01","12:40",0.0,33.7,51.2,1008.8,208.6,2.2,5.7,228.2,0.34,22.3,26.7,"12:31:44",1
"23/09/01","12:50",0.0,34.5,50.7,1009.0,187.3,1.3,3.4,215.6,0.48,22.8,26.6,"12:44:16",1
"23/09/01","13:00",0.0,34.8,50.6,1009.3,174.7,1.5,4.4,238.6,0.48,23.1,26.9,"12:54:24",1
"23/09/01","13:10",0.0,34.9,48.2,1009.5,174.4,1.5,3.6,156.0,0.51,22.4,26.9,"13:09:20",1
"23/09/01","13:20",0.0,34.8,48.6,1009.3,169.7,1.6,3.2,136.2,0.49,22.4,27.0,"13:10:40",1
"23/09/01","13:30",0.0,35.4,46.6,1009.3,246.1,1.2,2.9,243.8,0.50,22.3,27.1,"13:23:04",1
"23/09/01","13:40",0.0,35.2,47.3,1009.3,189.0,2.1,4.5,208.3,0.46,22.3,27.2,"13:35:44",1
"23/09/01","13:50",0.0,35.5,44.4,1009.5,203.8,1.3,4.1,205.4,0.48,21.6,27.2,"13:41:52",1
"23/09/01","14:00",0.0,35.9,42.9,1009.0,296.9,1.0,3.5,238.8,0.46,21.4,27.2,"13:57:52",1
"23/09/01","14:10",0.0,35.1,44.6,1009.0,198.4,2.5,5.0,223.2,0.45,21.3,27.1,"14:09:04",1
"23/09/01","14:20",0.0,35.6,43.7,1008.8,186.7,2.0,4.1,218.3,0.46,21.4,27.2,"14:13:20",1
"23/09/01","14:30",0.0,35.5,44.7,1009.3,270.5,1.1,3.3,241.2,0.32,21.7,27.5,"14:26:08",1
"23/09/01","14:40",0.0,35.7,44.0,1008.6,239.1,1.2,3.5,207.2,0.37,21.6,27.4,"14:30:02",1
"23/09/01","14:50",0.0,34.7,45.1,1008.8,215.6,1.3,3.1,208.8,0.16,21.1,27.4,"14:40:08",1
"23/09/01","15:00",0.0,34.0,49.7,1007.8,212.6,1.0,3.7,236.0,0.10,22.0,27.4,"14:51:28",1
"23/09/01","15:10",0.0,34.3,45.7,1007.6,220.3,1.3,2.6,239.1,0.20,21.0,27.5,"15:03:52",1
"23/09/01","15:20",0.0,34.6,46.4,1007.8,270.3,1.2,3.3,236.5,0.21,21.5,27.7,"15:18:48",1
"23/09/01","15:30",0.0,34.6,47.4,1007.4,277.8,1.1,2.5,216.1,0.19,21.8,27.5,"15:20:48",1
"23/09/01","15:40",0.0,34.4,48.2,1007.4,258.2,1.0,2.0,303.1,0.19,21.9,27.6,"15:33:44",1
"23/09/01","15:50",0.0,34.7,47.3,1007.6,303.6,1.2,3.5,337.7,0.23,21.9,27.6,"15:43:44",1
"23/09/01","16:00",0.0,34.7,46.9,1007.6,268.7,1.1,2.5,245.4,0.20,21.7,27.6,"15:57:20",1
"23/09/01","16:10",0.0,34.6,48.6,1007.4,288.6,1.2,3.3,350.1,0.18,22.2,27.6,"16:05:04",1
"23/09/01","16:20",0.0,34.7,47.6,1007.4,323.5,1.2,2.6,326.0,0.16,22.0,27.6,"16:19:12",1
"23/09/01","16:30",0.0,34.2,48.8,1007.1,316.6,1.1,3.1,340.6,0.10,21.9,27.6,"16:28:08",1
"23/09/01","16:40",0.0,34.2,48.9,1006.9,337.2,1.3,2.9,338.2,0.12,22.0,27.6,"16:36:32",1
"23/09/01","16:50",0.0,34.5,49.9,1006.9,344.8,0.8,2.4,356.4,0.11,22.6,27.5,"16:40:24",1
"23/09/01","17:00",0.0,34.8,49.3,1007.1,25.3,0.5,1.3,29.2,0.11,22.6,27.5,"16:50:56",1
"23/09/01","17:10",0.0,34.5,52.9,1007.1,109.3,0.8,2.0,94.9,0.10,23.5,27.6,"17:05:04",1
"23/09/01","17:20",0.0,34.4,53.9,1007.1,7.6,0.6,1.9,90.8,0.06,23.8,27.4,"17:11:28",1
"23/09/01","17:30",0.0,33.5,54.9,1006.9,11.2,0.8,2.4,9.8,0.02,23.2,27.6,"17:25:20",1
"23/09/01","17:40",0.0,32.3,57.7,1006.7,30.6,0.7,2.2,103.5,0.00,22.9,27.4,"17:33:20",1
"23/09/01","17:50",0.0,31.7,60.2,1006.4,342.8,0.7,2.1,10.1,0.00,23.1,27.5,"17:42:16",1
"23/09/01","18:00",0.0,31.0,62.2,1005.7,342.5,0.7,1.4,354.9,0.00,23.0,27.6,"17:57:28",1
"23/09/01","18:10",0.0,30.8,62.1,1005.5,326.9,0.8,1.6,341.8,0.00,22.7,27.6,"18:08:48",1
"23/09/01","18:20",0.0,30.5,59.7,1005.5,325.9,1.3,3.2,3.4,0.00,21.8,27.5,"18:13:36",1
"23/09/01","18:30",0.0,30.4,59.2,1005.5,338.6,1.5,3.5,328.6,0.00,21.6,27.4,"18:23:20",1
"23/09/01","18:40",0.0,29.8,60.5,1005.0,342.0,1.3,2.8,343.3,0.00,21.4,27.4,"18:38:48",1
"23/09/01","18:50",0.0,29.5,61.5,1005.2,328.6,1.2,3.2,342.6,0.00,21.4,27.5,"18:46:56",1
"23/09/01","19:00",0.0,29.1,62.2,1005.0,336.5,1.6,2.9,344.4,0.00,21.2,27.5,"18:51:44",1
"23/09/01","19:10",0.0,28.8,62.9,1005.5,315.5,0.8,1.9,351.3,0.00,21.1,27.2,"19:00:56",1
"23/09/01","19:20",0.0,28.7,63.3,1006.0,320.6,1.1,2.1,6.4,0.00,21.1,27.2,"19:10:40",1
"23/09/01","19:30",0.0,28.6,63.9,1006.0,312.5,0.6,1.4,21.7,0.00,21.1,27.2,"19:22:16",1
"23/09/01","19:40",0.0,28.2,64.3,1006.2,257.5,0.6,2.6,344.6,0.00,20.9,27.0,"19:37:28",1
"23/09/01","19:50",0.0,28.1,64.7,1006.4,31.0,0.3,1.6,339.0,0.00,20.9,27.0,"19:40:32",1
"23/09/01","20:00",0.0,27.8,65.6,1006.7,352.0,0.8,2.1,24.9,0.00,20.8,26.9,"19:56:16",1
"23/09/01","20:10",0.0,27.8,66.4,1006.9,349.3,0.6,1.3,346.0,0.00,21.0,27.0,"20:02:16",1
"23/09/01","20:20",0.0,27.5,66.7,1006.9,340.7,0.8,2.1,344.5,0.00,20.8,27.0,"20:17:28",1
"23/09/01","20:30",0.0,27.7,66.4,1007.1,346.1,1.3,2.2,348.5,0.00,20.9,26.9,"20:23:12",1
"23/09/01","20:40",0.0,27.6,66.0,1007.6,349.5,1.0,2.5,353.7,0.00,20.7,27.0,"20:30:48",1
"23/09/01","20:50",0.0,27.6,65.7,1007.4,343.8,1.0,2.2,352.0,0.00,20.6,26.8,"20:48:48",1
"23/09/01","21:00",0.0,28.0,65.1,1007.8,285.5,1.5,3.4,256.2,0.00,20.9,26.9,"20:51:52",1
"23/09/01","21:10",0.0,28.0,64.9,1007.4,292.2,1.1,3.1,231.5,0.00,20.8,26.9,"21:05:36",1
"23/09/01","21:20",0.0,28.1,65.1,1007.1,283.7,1.1,3.2,306.7,0.00,21.0,26.7,"21:13:36",1
"23/09/01","21:30",0.0,28.0,65.4,1007.6,315.4,1.2,2.1,335.4,0.00,20.9,26.8,"21:24:08",1
"23/09/01","21:40",0.0,27.6,66.8,1007.4,345.4,1.2,2.8,349.0,0.00,20.9,26.7,"21:37:12",1
"23/09/01","21:50",0.0,27.3,67.9,1007.6,351.0,1.0,1.9,358.1,0.00,20.9,26.6,"21:45:12",1
"23/09/01","22:00",0.0,26.9,68.8,1007.6,349.1,1.0,2.5,0.3,0.00,20.7,26.7,"21:52:40",1
"23/09/01","22:10",0.0,26.9,70.1,1007.6,359.8,1.1,1.9,32.9,0.00,21.0,26.3,"22:01:20",1
"23/09/01","22:20",0.0,26.6,71.5,1007.8,349.9,1.3,2.9,351.6,0.00,21.1,26.7,"22:18:00",1
"23/09/01","22:30",0.0,26.5,72.4,1007.6,342.6,1.3,2.8,328.8,0.00,21.2,26.6,"22:21:28",1
"23/09/01","22:40",0.0,26.4,72.9,1007.4,347.9,1.5,2.8,343.4,0.00,21.2,26.6,"22:38:00",1
"23/09/01","22:50",0.0,26.4,73.6,1007.6,345.5,1.3,2.7,341.7,0.00,21.3,26.6,"22:40:32",1
"23/09/01","23:00",0.0,26.2,74.7,1007.6,347.0,1.0,1.8,351.4,0.00,21.4,26.5,"22:52:16",1
"23/09/01","23:10",0.0,25.8,76.0,1007.6,342.1,0.8,1.8,352.1,0.00,21.3,26.2,"23:05:36",1
"23/09/01","23:20",0.0,25.4,77.5,1007.8,322.6,0.6,1.2,335.1,0.00,21.2,26.5,"23:19:36",1
"23/09/01","23:30",0.0,25.3,79.3,1007.6,346.4,1.0,1.7,356.7,0.00,21.5,26.5,"23:25:04",1
"23/09/01","23:40",0.0,25.1,80.6,1007.6,339.0,1.0,2.1,324.5,0.00,21.6,26.3,"23:30:02",1
"23/09/01","23:50",0.0,25.1,81.2,1007.4,343.8,1.5,2.7,329.1,0.00,21.7,26.3,"23:41:28",1
"23/09/01","24:00",0.0,25.0,81.4,1007.6,327.7,1.0,2.0,349.3,0.00,21.6,26.3,"23:52:32",1
